Cosmos 2263 Rocket - Orbit

View from above orbital plane
View from above orbital plane
View from above satellite
View from above satellite

Ground track
Ground track

The orbit data is extracted from the following two-line orbital elements,

1 22803U 93059B   13143.14964894 -.00000308  00000-0 -12993-3 0   102
2 22803 070.9892 140.5208 0015354 132.9449 227.2966 14.16621548 17822
Epoch (UTC): 23 May 2013 03:35:29
Eccentricity: 0.0015354
inclination: 70.9892°
perigee height: 826 km
apogee height: 848 km
right ascension of ascending node: 140.5208°
argument of perigee: 132.9449°
revolutions per day: 14.16621548
mean anomaly at epoch: 227.2966°
orbit number at epoch: 1782

The dashed part of the orbit path shows where the satellite is in the earth's shadow,  

Developed and maintained by Chris Peat, Heavens-Above GmbH. Please read the updated FAQ before sending e-mail. Imprint. DLR